EW4676 Weather Reports


time (UTC)temp
C
wind
direction
speed
KPH
gust
KPH
rain 1hr
cm
rain 24hr
cm
rain mn
cm
humidity
%
barometer
mb
20260906233911 36 145 8.0 17.7 0.00 0.00 0.00 38 1010.3
20260906233906 36 169 6.4 19.3 0.00 0.00 0.00 38 1010.3
20260906233511 36 152 8.0 19.3 0.00 0.00 0.00 39 1010.4
20260906232358 36 133 4.8 16.1 0.00 0.00 0.00 38 1010.3
20260906231853 36 136 4.8 17.7 0.00 0.00 0.00 38 1010.4
20260906231346 36 154 6.4 17.7 0.00 0.00 0.00 37 1010.4
20260906230846 36 80 4.8 19.3 0.00 0.00 0.00 37 1010.4
20260906230346 36 200 6.4 19.3 0.00 0.00 0.00 37 1010.3
20260906225843 36 180 8.0 19.3 0.00 0.00 0.00 37 1010.4
20260906225337 36 155 8.0 19.3 0.00 0.00 0.00 36 1010.3
20260906224831 36 101 8.0 19.3 0.00 0.00 0.00 37 1010.4
20260906224322 36 157 6.4 19.3 0.00 0.00 0.00 36 1010.4
20260906223812 36 101 8.0 19.3 0.00 0.00 0.00 36 1010.4
20260906223303 36 164 8.0 22.5 0.00 0.00 0.00 35 1010.5
20260906222756 37 91 8.0 22.5 0.00 0.00 0.00 36 1010.5
20260906222247 36 187 8.0 17.7 0.00 0.00 0.00 36 1010.4
20260906221736 36 192 6.4 20.9 0.00 0.00 0.00 37 1010.5
20260906221226 36 144 4.8 20.9 0.00 0.00 0.00 37 1010.5
20260906220717 36 78 6.4 14.5 0.00 0.00 0.00 36 1010.5
20260906220207 36 95 6.4 20.9 0.00 0.00 0.00 36 1010.6
20260906215701 37 55 6.4 20.9 0.00 0.00 0.00 37 1010.6
20260906215201 37 62 8.0 22.5 0.00 0.00 0.00 37 1010.6
20260906214700 37 91 9.7 22.5 0.00 0.00 0.00 37 1010.6
20260906214201 37 89 8.0 22.5 0.00 0.00 0.00 37 1010.7
20260906213703 37 61 8.0 17.7 0.00 0.00 0.00 37 1010.8
20260906213152 37 89 8.0 17.7 0.00 0.00 0.00 37 1010.8
20260906212646 37 95 3.2 14.5 0.00 0.00 0.00 37 1011.0
20260906212136 37 76 4.8 12.9 0.00 0.00 0.00 38 1011.1
20260906211627 37 77 4.8 16.1 0.00 0.00 0.00 38 1011.2
20260906211116 37 120 6.4 16.1 0.00 0.00 0.00 37 1011.2
20260906210606 37 136 8.0 17.7 0.00 0.00 0.00 38 1011.2
20260906210557 37 86 8.0 22.5 0.00 0.00 0.00 38 1011.3
20260906205546 36 138 8.0 22.5 0.00 0.00 0.00 38 1011.3
20260906205036 36 147 6.4 19.3 0.00 0.00 0.00 38 1011.4
20260906204526 37 48 6.4 16.1 0.00 0.00 0.00 38 1011.4
20260906204017 36 83 6.4 19.3 0.00 0.00 0.00 39 1011.6
20260906204007 37 30 6.4 19.3 0.00 0.00 0.00 39 1011.7
20260906202956 36 88 6.4 20.9 0.00 0.00 0.00 39 1011.7
20260906202446 37 76 6.4 20.9 0.00 0.00 0.00 39 1011.7
20260906201934 36 228 8.0 24.1 0.00 0.00 0.00 39 1011.8
20260906201925 37 87 8.0 24.1 0.00 0.00 0.00 39 1011.9
20260906200914 36 85 6.4 22.5 0.00 0.00 0.00 40 1011.9
20260906200906 36 89 6.4 22.5 0.00 0.00 0.00 40 1012.0
20260906195852 36 85 8.0 25.7 0.00 0.00 0.00 39 1012.0
20260906195342 37 104 9.7 29.0 0.00 0.00 0.00 39 1012.0
20260906194832 37 115 8.0 29.0 0.00 0.00 0.00 40 1012.0
20260906194322 36 63 6.4 16.1 0.00 0.00 0.00 41 1012.0
20260906193812 36 99 6.4 17.7 0.00 0.00 0.00 41 1012.1
20260906193302 36 103 6.4 17.7 0.00 0.00 0.00 40 1012.2
20260906192752 36 56 8.0 19.3 0.00 0.00 0.00 41 1012.2
20260906192242 36 111 6.4 17.7 0.00 0.00 0.00 42 1012.4
20260906191730 35 99 4.8 19.3 0.00 0.00 0.00 43 1012.5
20260906191220 36 62 6.4 19.3 0.00 0.00 0.00 42 1012.5
20260906190710 35 66 6.4 22.5 0.00 0.00 0.00 45 1012.6
20260906190200 35 116 6.4 22.5 0.00 0.00 0.00 44 1012.5
20260906185650 36 64 6.4 17.7 0.00 0.00 0.00 41 1012.6
20260906185641 36 149 8.0 25.7 0.00 0.00 0.00 43 1012.6
20260906184635 36 82 4.8 16.1 0.00 0.00 0.00 44 1012.7
20260906184630 35 89 6.4 25.7 0.00 0.00 0.00 43 1012.7
20260906183620 35 76 4.8 12.9 0.00 0.00 0.00 45 1012.7
20260906183108 36 141 6.4 16.1 0.00 0.00 0.00 43 1012.8
20260906182558 36 89 6.4 16.1 0.00 0.00 0.00 44 1012.9
20260906182040 36 153 6.4 16.1 0.00 0.00 0.00 44 1013.0
20260906181531 36 148 6.4 17.7 0.00 0.00 0.00 42 1013.0
20260906181020 36 106 6.4 17.7 0.00 0.00 0.00 43 1013.1
20260906180511 35 210 4.8 16.1 0.00 0.00 0.00 45 1013.1
20260906180000 35 87 4.8 16.1 0.00 0.00 0.00 45 1013.3
20260906175451 35 157 6.4 16.1 0.00 0.00 0.00 45 1013.4
20260906174941 36 99 4.8 16.1 0.00 0.00 0.00 46 1013.5
20260906174429 35 132 4.8 9.7 0.00 0.00 0.00 46 1013.6
20260906173917 34 282 4.8 14.5 0.00 0.00 0.00 48 1013.6
20260906173409 35 87 4.8 14.5 0.00 0.00 0.00 47 1013.8
20260906172858 35 38 3.2 12.9 0.00 0.00 0.00 47 1013.8
20260906172850 34 54 3.2 12.9 0.00 0.00 0.00 50 1013.9
20260906171838 34 59 4.8 11.3 0.00 0.00 0.00 49 1014.0
20260906171329 34 88 6.4 14.5 0.00 0.00 0.00 50 1014.1
20260906170818 34 124 4.8 14.5 0.00 0.00 0.00 48 1014.2
20260906170309 33 191 4.8 16.1 0.00 0.00 0.00 52 1014.2
20260906165756 33 93 4.8 16.1 0.00 0.00 0.00 51 1014.3
20260906165248 34 143 4.8 12.9 0.00 0.00 0.00 50 1014.3
20260906164736 34 91 3.2 12.9 0.00 0.00 0.00 50 1014.3
20260906164227 33 237 4.8 14.5 0.00 0.00 0.00 51 1014.3
20260906163716 33 179 4.8 14.5 0.00 0.00 0.00 50 1014.4
20260906163210 33 85 4.8 11.3 0.00 0.00 0.00 51 1014.4
20260906162702 33 103 4.8 14.5 0.00 0.00 0.00 52 1014.3
20260906162157 34 116 3.2 14.5 0.00 0.00 0.00 50 1014.3
20260906161650 33 113 4.8 12.9 0.00 0.00 0.00 54 1014.3
20260906161141 33 43 3.2 12.9 0.00 0.00 0.00 52 1014.3
20260906161130 33 135 4.8 12.9 0.00 0.00 0.00 56 1014.3
20260906160120 32 37 3.2 12.9 0.00 0.00 0.00 56 1014.4
20260906155610 32 81 3.2 8.0 0.00 0.00 0.00 55 1014.3
20260906155557 32 97 3.2 11.3 0.00 0.00 0.00 56 1014.4
20260906155200 32 81 3.2 11.3 0.00 0.00 0.00 56 1014.4
20260906154049 32 35 3.2 9.7 0.00 0.00 0.00 58 1014.4
20260906153542 31 132 4.8 9.7 0.00 0.00 0.00 60 1014.4
20260906153037 32 74 4.8 9.7 0.00 0.00 0.00 60 1014.2
20260906152530 31 66 3.2 9.7 0.00 0.00 0.00 61 1014.2
20260906152021 31 113 3.2 9.7 0.00 0.00 0.00 62 1014.3
20260906151519 30 136 4.8 11.3 0.00 0.00 0.00 63 1014.3
20260906151015 31 97 3.2 11.3 0.00 0.00 0.00 62 1014.3
20260906151009 31 157 1.6 8.0 0.00 0.00 0.00 64 1014.2
20260906150006 29 103 3.2 11.3 0.00 0.00 0.00 64 1014.2
20260906150001 30 168 3.2 9.7 0.00 0.00 0.00 65 1014.1
20260906144954 30 64 3.2 9.7 0.00 0.00 0.00 64 1014.1
20260906144449 30 68 1.6 9.7 0.00 0.00 0.00 63 1014.0
20260906143949 30 68 3.2 9.7 0.00 0.00 0.00 64 1014.0
20260906143439 30 64 3.2 9.7 0.00 0.00 0.00 66 1014.0
20260906142937 29 78 3.2 9.7 0.00 0.00 0.00 67 1014.1
20260906142514 29 97 1.6 6.4 0.00 0.00 0.00 68 1014.1
20260906142431 28 122 1.6 8.0 0.00 0.00 0.00 67 1014.1
20260906141925 29 80 1.6 6.4 0.00 0.00 0.00 66 1014.0
20260906141909 28 97 1.6 6.4 0.00 0.00 0.00 69 1014.0
20260906140359 28 91 0.0 6.4 0.00 0.00 0.00 70 1013.9
20260906135858 28 91 1.6 6.4 0.00 0.00 0.00 70 1014.0
20260906135853 27 108 1.6 8.0 0.00 0.00 0.00 72 1013.9
20260906135347 27 85 1.6 8.0 0.00 0.00 0.00 72 1013.8
20260906134340 27 114 1.6 4.8 0.00 0.00 0.00 73 1013.8
20260906133833 26 107 1.6 4.8 0.00 0.00 0.00 75 1013.9
20260906133828 26 96 1.6 4.8 0.00 0.00 0.00 76 1013.9
20260906132822 26 95 1.6 4.8 0.00 0.00 0.00 77 1013.9
20260906132311 26 94 0.0 4.8 0.00 0.00 0.00 77 1013.8
20260906131802 26 93 0.0 0.0 0.00 0.00 0.00 77 1013.8
20260906131300 26 93 0.0 0.0 0.00 0.00 0.00 77 1013.8
20260906130757 25 93 0.0 0.0 0.00 0.00 0.00 77 1013.9
20260906130257 25 93 0.0 1.6 0.00 0.00 0.00 77 1013.8
20260906125759 25 99 0.0 4.8 0.00 0.00 0.00 77 1013.7
20260906125755 25 93 0.0 4.8 0.00 0.00 0.00 77 1013.7
20260906124746 25 95 0.0 4.8 0.00 0.00 0.00 77 1013.6
20260906124236 25 101 1.6 6.4 0.00 0.00 0.00 77 1013.6
20260906123726 25 99 1.6 6.4 0.00 0.00 0.00 77 1013.7
20260906123715 25 99 1.6 6.4 0.00 0.00 0.00 77 1013.6
20260906122707 25 101 1.6 6.4 0.00 0.00 0.00 77 1013.5
20260906122155 25 96 1.6 6.4 0.00 0.00 0.00 76 1013.5
20260906121646 25 100 1.6 6.4 0.00 0.00 0.00 76 1013.5
20260906121135 25 101 3.2 8.0 0.00 0.00 0.00 76 1013.4
20260906120626 25 101 3.2 8.0 0.00 0.00 0.00 76 1013.4
20260906120115 25 99 3.2 8.0 0.00 0.00 0.00 76 1013.3
20260906115606 25 112 1.6 4.8 0.00 0.00 0.00 76 1013.3
20260906115556 25 119 0.0 0.0 0.00 0.00 0.00 76 1013.2
20260906114545 25 125 0.0 0.0 0.00 0.00 0.00 76 1013.2
20260906114027 25 129 0.0 0.0 0.00 0.00 0.00 76 1013.1
20260906113516 25 136 0.0 0.0 0.00 0.00 0.00 75 1013.0
20260906112959 25 138 0.0 0.0 0.00 0.00 0.00 75 1013.0
20260906112449 25 138 0.0 0.0 0.00 0.00 0.00 75 1013.0
20260906111939 26 138 0.0 0.0 0.00 0.00 0.00 75 1012.9
20260906111429 26 138 0.0 0.0 0.00 0.00 0.00 75 1012.9
20260906110918 26 139 0.0 0.0 0.00 0.00 0.00 74 1012.9
20260906110409 26 140 0.0 0.0 0.00 0.00 0.00 74 1012.9
20260906105859 26 141 0.0 0.0 0.00 0.00 0.00 74 1012.8
20260906105353 26 141 0.0 0.0 0.00 0.00 0.00 74 1012.8
20260906104843 26 141 0.0 0.0 0.00 0.00 0.00 74 1012.8
20260906104834 26 159 0.0 0.0 0.00 0.00 0.00 74 1012.8
20260906103823 26 186 0.0 0.0 0.00 0.00 0.00 73 1012.9
20260906103814 26 188 0.0 0.0 0.00 0.00 0.00 73 1012.9
20260906102803 26 189 0.0 0.0 0.00 0.00 0.00 73 1012.8
20260906102253 26 190 0.0 0.0 0.00 0.00 0.00 73 1012.8
20260906101743 26 189 0.0 0.0 0.00 0.00 0.00 72 1012.7
20260906101233 26 207 0.0 0.0 0.00 0.00 0.00 72 1012.6
20260906100723 26 207 0.0 0.0 0.00 0.00 0.00 72 1012.6
20260906100213 26 207 0.0 0.0 0.00 0.00 0.00 72 1012.5
20260906095703 26 207 0.0 0.0 0.00 0.00 0.00 72 1012.4
20260906095154 26 207 0.0 0.0 0.00 0.00 0.00 72 1012.3
20260906094644 26 209 0.0 0.0 0.00 0.00 0.00 72 1012.3
20260906094634 26 209 0.0 0.0 0.00 0.00 0.00 72 1012.1
20260906093622 26 210 0.0 0.0 0.00 0.00 0.00 71 1012.1
20260906093105 26 210 0.0 3.2 0.00 0.00 0.00 71 1012.2
20260906093047 26 211 0.0 1.6 0.00 0.00 0.00 71 1012.1
20260906092652 26 210 0.0 3.2 0.00 0.00 0.00 71 1012.1
20260906091535 27 211 0.0 1.6 0.00 0.00 0.00 71 1012.2
20260906091025 27 213 0.0 1.6 0.00 0.00 0.00 71 1012.2
20260906090515 27 214 0.0 3.2 0.00 0.00 0.00 71 1012.2
20260906090005 27 215 0.0 3.2 0.00 0.00 0.00 71 1012.1
20260906085957 27 214 0.0 4.8 0.00 0.00 0.00 70 1012.1
20260906084945 27 216 0.0 4.8 0.00 0.00 0.00 70 1012.1
20260906084435 27 208 0.0 4.8 0.00 0.00 0.00 70 1012.0
20260906083917 27 233 1.6 8.0 0.00 0.00 0.00 70 1012.0
20260906083407 27 228 1.6 9.7 0.00 0.00 0.00 70 1012.0
20260906082857 27 203 3.2 8.0 0.00 0.00 0.00 70 1012.0
20260906082347 27 195 3.2 12.9 0.00 0.00 0.00 69 1012.1
20260906081837 27 200 3.2 9.7 0.00 0.00 0.00 69 1012.0
20260906081327 27 199 3.2 12.9 0.00 0.00 0.00 69 1012.0
20260906080817 27 165 3.2 11.3 0.00 0.00 0.00 69 1012.0
20260906080307 27 200 3.2 8.0 0.00 0.00 0.00 69 1012.1
20260906075757 27 234 3.2 11.3 0.00 0.00 0.00 69 1012.2
20260906075240 27 166 3.2 11.3 0.00 0.00 0.00 69 1012.2
20260906074729 27 161 3.2 12.9 0.00 0.00 0.00 69 1012.2
20260906074721 28 181 3.2 12.9 0.00 0.00 0.00 68 1012.3
20260906073709 28 236 3.2 9.7 0.00 0.00 0.00 68 1012.2
20260906073701 28 222 3.2 14.5 0.00 0.00 0.00 68 1012.1
20260906072649 28 230 3.2 14.5 0.00 0.00 0.00 68 1012.2
20260906072140 28 204 3.2 12.9 0.00 0.00 0.00 68 1012.3
20260906071629 28 170 4.8 12.9 0.00 0.00 0.00 68 1012.3
20260906071120 28 155 6.4 16.1 0.00 0.00 0.00 68 1012.3
20260906070609 28 210 6.4 16.1 0.00 0.00 0.00 67 1012.4
20260906070055 28 170 6.4 17.7 0.00 0.00 0.00 67 1012.4
20260906065546 28 169 4.8 17.7 0.00 0.00 0.00 67 1012.5
20260906065036 28 186 4.8 14.5 0.00 0.00 0.00 67 1012.5
20260906064525 28 225 6.4 17.7 0.00 0.00 0.00 67 1012.5
20260906064016 28 121 8.0 17.7 0.00 0.00 0.00 67 1012.5
20260906064011 28 189 4.8 12.9 0.00 0.00 0.00 66 1012.5
20260906063001 28 178 4.8 12.9 0.00 0.00 0.00 66 1012.6
20260906062459 28 147 3.2 12.9 0.00 0.00 0.00 66 1012.6
20260906062454 28 180 3.2 6.4 0.00 0.00 0.00 66 1012.6
20260906061948 28 206 3.2 6.4 0.00 0.00 0.00 66 1012.7
20260906060944 28 190 1.6 6.4 0.00 0.00 0.00 66 1012.7
20260906060440 28 174 1.6 4.8 0.00 0.00 0.00 66 1012.7
20260906060434 29 221 3.2 9.7 0.00 0.00 0.00 66 1012.7
20260906055436 29 191 3.2 6.4 0.00 0.00 0.00 66 1012.6
20260906055431 29 207 1.6 11.3 0.00 0.00 0.00 66 1012.7
20260906054916 29 201 1.6 8.0 0.00 0.00 0.00 65 1012.6
20260906053905 29 184 3.2 11.3 0.00 0.00 0.00 65 1012.6
20260906053401 29 210 3.2 11.3 0.00 0.00 0.00 65 1012.5
20260906053357 29 195 3.2 11.3 0.00 0.00 0.00 65 1012.5
20260906052352 29 209 3.2 11.3 0.00 0.00 0.00 65 1012.5
20260906051849 29 205 3.2 12.9 0.00 0.00 0.00 64 1012.5
20260906051343 29 206 3.2 12.9 0.00 0.00 0.00 64 1012.5
20260906050838 29 174 4.8 12.9 0.00 0.00 0.00 64 1012.5
20260906050331 29 207 4.8 12.9 0.00 0.00 0.00 64 1012.5
20260906050326 30 126 4.8 11.3 0.00 0.00 0.00 63 1012.4
20260906045814 30 164 4.8 11.3 0.00 0.00 0.00 63 1012.5
20260906044804 30 146 4.8 12.9 0.00 0.00 0.00 63 1012.6
20260906044253 30 143 4.8 12.9 0.00 0.00 0.00 63 1012.6
20260906043744 30 128 4.8 11.3 0.00 0.00 0.00 62 1012.5
20260906043233 30 166 6.4 11.3 0.00 0.00 0.00 62 1012.5
20260906042724 30 163 4.8 11.3 0.00 0.00 0.00 62 1012.4
20260906042213 30 159 4.8 12.9 0.00 0.00 0.00 62 1012.3
20260906041724 30 150 4.8 12.9 0.00 0.00 0.00 61 1012.4
20260906041153 30 146 4.8 11.3 0.00 0.00 0.00 61 1012.4
20260906040644 30 151 4.8 11.3 0.00 0.00 0.00 61 1012.3
20260906040134 30 139 6.4 12.9 0.00 0.00 0.00 61 1012.4
20260906035624 30 156 6.4 16.1 0.00 0.00 0.00 61 1012.4
20260906035113 30 142 6.4 16.1 0.00 0.00 0.00 60 1012.3
20260906034603 30 143 6.4 12.9 0.00 0.00 0.00 60 1012.3
20260906034555 30 161 6.4 16.1 0.00 0.00 0.00 60 1012.4
20260906033544 30 150 6.4 16.1 0.00 0.00 0.00 60 1012.4
20260906033033 30 199 8.0 20.9 0.00 0.00 0.00 60 1012.4
20260906032523 30 120 8.0 20.9 0.00 0.00 0.00 59 1012.4
20260906032013 30 136 8.0 16.1 0.00 0.00 0.00 59 1012.5
20260906031455 30 177 6.4 16.1 0.00 0.00 0.00 59 1012.4
20260906030945 30 139 6.4 19.3 0.00 0.00 0.00 59 1012.4
20260906030935 30 147 8.0 19.3 0.00 0.00 0.00 58 1012.4
20260906025925 31 125 8.0 17.7 0.00 0.00 0.00 58 1012.4
20260906025916 31 124 8.0 19.3 0.00 0.00 0.00 58 1012.4
20260906024905 31 117 6.4 19.3 0.00 0.00 0.00 58 1012.4
20260906024858 31 139 6.4 16.1 0.00 0.00 0.00 58 1012.3
20260906023856 31 152 8.0 20.9 0.00 0.00 0.00 58 1012.3
20260906023357 31 139 6.4 16.1 0.00 0.00 0.00 57 1012.1
20260906022847 31 124 6.4 17.7 0.00 0.00 0.00 57 1012.1
20260906022337 31 159 8.0 17.7 0.00 0.00 0.00 57 1011.9
20260906021827 31 138 9.7 20.9 0.00 0.00 0.00 57 1011.9
20260906021317 31 122 9.7 20.9 0.00 0.00 0.00 57 1011.7
20260906020807 31 145 9.7 19.3 0.00 0.00 0.00 56 1011.7
20260906020256 31 157 11.3 22.5 0.00 0.00 0.00 56 1011.7
20260906015747 31 127 9.7 22.5 0.00 0.00 0.00 56 1011.6
20260906015235 31 114 9.7 19.3 0.00 0.00 0.00 55 1011.5
20260906014725 31 141 11.3 27.4 0.00 0.00 0.00 55 1011.5
20260906014215 31 147 11.3 27.4 0.00 0.00 0.00 54 1011.3
20260906013705 32 129 9.7 25.7 0.00 0.00 0.00 54 1011.2
20260906013155 32 128 8.0 20.9 0.00 0.00 0.00 54 1011.1
20260906012645 32 151 9.7 27.4 0.00 0.00 0.00 53 1011.1
20260906012134 32 138 11.3 27.4 0.00 0.00 0.00 53 1011.0
20260906011625 32 136 11.3 29.0 0.00 0.00 0.00 52 1010.8
20260906011617 32 129 11.3 29.0 0.00 0.00 0.00 51 1010.8
20260906011106 33 79 11.3 25.7 0.00 0.00 0.00 50 1010.8
20260906010555 33 80 12.9 37.0 0.00 0.00 0.00 49 1010.7
20260906005545 33 157 16.1 37.0 0.00 0.00 0.00 48 1010.7
20260906005123 35 86 12.9 32.2 0.00 0.00 0.00 46 1010.6
20260906004622 35 148 6.4 30.6 0.00 0.00 0.00 42 1010.5
20260906003502 35 109 6.4 19.3 0.00 0.00 0.00 40 1010.4
20260906002953 35 149 4.8 14.5 0.00 0.00 0.00 39 1010.4
20260906002443 35 134 4.8 14.5 0.00 0.00 0.00 39 1010.4
20260906001933 35 99 4.8 14.5 0.00 0.00 0.00 38 1010.4
20260906001421 36 136 6.4 19.3 0.00 0.00 0.00 38 1010.3
20260906000911 36 151 8.0 19.3 0.00 0.00 0.00 38 1010.3
20260906000403 36 61 8.0 17.7 0.00 0.00 0.00 38 1010.3
20260905235853 36 130 6.4 17.7 0.00 0.00 0.00 38 1010.2
20260905235844 36 102 4.8 12.9 0.00 0.00 0.00 38 1010.2
20260905234833 36 94 3.2 9.7 0.00 0.00 0.00 37 1010.2
20260905234316 36 139 3.2 9.7 0.00 0.00 0.00 37 1010.1